Temperature
20 18 17 16 16 16 16 16 16 16 16 16 16 16 15 15 15 15 15 15 14 14 14 14 14 14 14 14 14 14 14 14 14 14 14 14 14 14 14 13 13 13 13
21 18 17 16 16 16 16 16 16 16 16 16 16 16 15 15 15 15 15 15 14 14 14 14 14 14 14 14 14 14 14 14 14 14 14 14 14 14 14 13 13 13 12
21 18 17 16 16 16 16 16 16 16 16 16 16 16 16 15 15 15 15 14 14 14 14 14 14 13 14 14 14 14 14 14 14 14 14 14 14 14 13 13 13 13 13
20 19 17 16 16 16 16 16 16 16 16 16 16 16 16 16 16 15 15 15 14 14 14 14 14 13 13 13 14 14 14 13 13 13 14 14 13 13 13 13 13 13 13
20 19 17 16 16 17 17 17 17 17 17 17 17 16 16 16 16 16 15 15 14 14 14 14 14 13 13 13 14 14 14 13 13 13 13 13 13 13 13 13 13 13 13
19 19 18 17 17 17 17 17 17 17 17 17 17 17 17 17 16 16 15 15 14 14 14 14 14 14 13 14 14 14 14 13 13 13 13 13 13 12 13 13 13 13 13
19 18 18 17 17 17 17 18 18 18 18 17 17 17 17 17 17 16 16 15 15 14 14 14 14 14 14 14 14 14 13 13 13 13 13 13 12 12 12 13 13 13 13
19 18 17 17 17 17 18 18 18 18 18 18 17 17 17 17 16 16 16 15 15 14 14 14 14 14 14 14 14 14 13 13 13 12 12 12 12 12 12 12 12 12 12
18 18 18 17 17 17 18 18 18 18 18 18 17 17 17 16 16 16 16 15 15 14 14 14 14 14 14 14 14 13 13 13 12 12 12 12 12 12 12 12 12 12 12
17 17 18 18 18 18 18 18 18 18 18 17 17 16 16 16 16 16 15 15 15 14 14 14 14 14 14 14 13 13 13 12 12 12 12 12 12 12 12 11 12 12 12
17 17 17 18 18 18 18 18 18 18 18 17 16 16 16 16 16 15 15 15 15 14 14 14 14 14 14 13 13 13 13 12 12 12 12 11 11 11 11 11 11 11 11
18 18 18 18 18 18 18 18 18 18 18 17 17 16 16 15 15 15 15 15 14 14 14 14 14 13 13 13 13 13 12 12 12 12 12 11 11 11 10 11 11 10 10
19 18 18 18 18 18 18 18 18 18 18 17 17 16 16 15 15 14 14 14 14 14 14 14 13 13 13 13 13 12 12 12 12 12 11 11 11 10 10 10 10 10 10
18 19 18 18 17 17 17 17 17 17 17 17 17 16 16 15 15 14 14 14 14 14 13 13 13 13 12 12 12 12 12 12 12 12 11 11 10 10 10 10 9 9 9
18 18 18 18 18 17 17 17 17 17 17 17 17 16 16 15 15 14 14 14 13 13 13 13 13 12 12 12 12 12 12 12 12 12 11 11 10 10 9 9 9 9 9
18 18 18 18 18 17 17 17 17 16 16 16 16 16 16 15 15 14 14 13 13 13 13 12 12 12 12 12 12 12 12 12 12 12 11 11 10 10 9 9 9 9 8
18 18 18 18 17 17 17 17 16 16 16 16 16 16 15 15 15 14 14 13 13 13 12 12 12 12 12 12 12 12 12 12 12 11 11 10 10 9 9 9 9 8 8
17 17 17 17 17 17 17 17 17 16 16 16 15 15 15 15 15 14 14 13 13 12 12 12 12 12 11 12 12 12 12 12 12 11 11 10 10 9 9 8 8 8 8
17 17 17 17 17 17 17 17 17 16 16 16 15 15 15 15 15 14 14 13 13 12 12 12 11 11 11 11 11 11 12 12 11 11 11 10 9 9 8 8 8 8 8
17 17 17 17 17 18 17 17 17 16 16 16 16 16 15 15 15 14 14 13 13 12 12 11 11 11 11 11 11 11 11 11 11 11 11 10 9 9 8 8 8 7 7
17 17 17 17 17 17 17 17 17 17 17 16 16 16 16 15 15 14 14 13 13 12 12 12 11 11 11 11 11 11 11 11 11 11 10 10 9 9 8 7 7 7 7
16 16 17 17 17 17 17 17 17 17 17 17 17 16 16 16 15 15 14 14 13 13 12 12 11 11 11 11 11 11 11 11 11 11 10 10 9 8 8 7 7 6 6
16 16 16 16 16 16 17 16 16 16 16 16 16 16 16 16 16 15 15 14 14 13 13 12 12 11 11 11 11 11 11 11 11 10 10 10 9 8 7 7 6 6 5
15 16 16 16 16 16 16 16 16 16 15 16 16 16 16 16 16 15 15 15 14 14 13 13 12 12 11 11 11 11 11 11 10 10 9 9 9 8 7 6 6 5 5
15 15 15 15 16 16 16 16 16 16 16 16 16 16 16 16 16 15 15 15 15 14 13 13 12 12 11 11 11 11 10 10 10 9 9 9 8 8 7 6 5 5 4
14 14 14 15 15 15 15 15 15 15 15 15 15 15 15 15 15 15 15 15 15 14 14 13 12 11 11 11 10 10 10 10 9 9 8 8 8 7 6 6 5 4 4
Wind_Speed
6 10 19 19 18 18 18 19 18 18 17 17 16 15 14 13 11 10 9 8 7 7 9 11 13 13 14 14 14 13 13 12 11 10 10 9 9 9 9 8 7 7 8
9 14 19 19 19 18 19 19 18 18 17 16 15 14 13 12 10 8 7 7 6 7 9 12 13 14 14 14 13 13 12 11 10 8 8 7 7 7 8 7 6 5 6
12 15 19 20 19 19 19 19 18 17 16 15 14 13 12 11 9 8 7 7 6 7 10 12 13 13 13 13 13 12 11 9 8 7 6 5 4 6 6 5 4 4 4
13 15 18 20 19 19 19 19 18 17 16 15 14 13 11 10 10 9 8 7 8 9 10 13 14 14 13 12 11 11 9 8 7 6 5 3 3 3 5 4 4 3 3
11 14 18 21 20 19 19 18 18 17 16 15 14 12 11 11 10 9 8 9 10 11 13 14 14 13 12 11 10 9 8 7 7 6 4 2 3 3 5 5 4 3 3
9 13 18 20 20 19 18 18 18 17 16 15 14 13 12 11 10 10 9 10 11 12 14 14 13 12 11 9 9 8 7 7 7 6 3 2 3 4 7 7 7 6 6
9 12 17 19 19 18 18 17 17 17 17 16 15 13 12 11 11 11 10 11 11 12 13 12 11 10 9 8 8 7 7 8 8 6 3 2 3 6 9 10 10 11 12
10 10 16 18 18 17 17 17 17 17 17 16 15 14 13 12 12 11 11 10 10 11 10 9 9 8 8 7 7 7 7 8 7 5 3 3 4 8 11 12 14 15 15
9 9 11 15 16 16 16 16 16 16 16 16 15 14 13 12 12 11 11 10 9 9 8 8 7 7 6 6 6 6 7 8 8 5 4 4 5 9 11 13 13 14 14
9 7 8 12 14 14 14 16 16 16 16 16 16 15 14 14 13 11 10 9 8 8 7 7 6 6 6 6 7 7 8 8 8 6 4 4 7 10 11 12 12 13 13
11 8 7 8 11 12 13 14 15 16 16 16 15 16 15 13 12 11 10 8 8 7 7 6 6 7 8 8 8 8 9 8 7 5 4 5 8 10 11 11 11 11 12
16 13 9 8 8 11 12 12 12 13 14 14 13 14 14 13 12 10 10 9 8 7 6 5 6 7 7 7 8 9 9 8 7 5 4 6 9 11 11 10 10 10 10
15 14 13 10 9 9 8 9 10 11 11 12 13 14 14 12 10 9 8 7 6 6 5 5 6 7 7 7 8 8 8 8 7 5 5 8 10 10 10 9 9 9 9
13 15 14 13 9 9 8 8 9 8 9 9 12 15 13 8 7 8 8 7 7 6 6 6 6 7 8 8 8 8 8 7 7 6 7 9 10 10 9 9 8 8 8
13 14 14 13 13 9 7 6 8 8 9 11 13 15 14 9 6 7 7 8 8 7 7 6 7 7 7 7 7 8 7 7 7 8 8 10 11 10 9 8 7 7 7
14 14 13 14 14 12 11 9 7 10 11 12 13 15 16 13 10 8 6 7 8 9 9 8 8 7 6 6 6 6 7 7 7 8 9 10 11 10 8 7 7 7 6
12 13 14 15 15 15 13 11 9 11 13 11 13 16 17 16 13 10 6 6 9 11 10 9 7 7 5 4 4 5 5 6 7 7 8 9 9 9 8 7 6 6 6
10 12 14 14 15 17 15 13 9 11 12 12 14 16 18 18 17 12 7 7 11 12 10 6 5 4 4 4 3 3 3 4 5 6 7 8 8 8 7 6 6 5 5
10 11 13 14 15 17 17 13 10 10 11 12 14 15 17 19 19 14 9 9 13 9 6 6 4 4 4 4 4 3 2 2 4 5 5 6 6 6 6 5 5 4 4
9 10 11 13 14 15 13 11 10 10 10 10 12 14 17 19 20 16 10 11 12 7 7 6 5 3 3 5 4 3 2 1 2 3 4 5 5 5 5 5 4 3 4
7 9 10 11 12 11 10 12 13 14 13 12 13 16 18 18 19 16 9 10 10 10 11 10 6 5 3 4 4 2 2 2 1 1 3 3 4 5 5 4 3 2 2
6 7 8 10 10 11 11 11 10 11 10 12 10 11 16 17 18 16 13 12 12 10 10 11 7 5 3 4 4 3 2 1 1 1 1 3 3 4 5 5 3 1 1
5 6 7 8 9 10 11 8 5 5 4 7 9 11 13 17 18 16 15 13 14 13 13 13 11 10 6 3 2 4 5 5 2 0 0 1 2 2 3 4 3 2 1
5 5 6 7 8 8 9 9 11 12 13 13 12 13 13 15 16 17 15 14 15 13 13 14 11 7 8 5 2 1 2 3 4 3 1 1 1 3 3 3 2 2 2
4 4 4 5 6 6 7 10 12 13 13 9 8 10 12 12 13 14 14 13 14 12 12 12 11 9 6 6 6 4 3 2 2 3 3 2 1 2 2 2 3 4 4
7 6 5 5 5 5 6 8 11 14 13 10 10 12 11 8 9 12 12 12 12 11 11 12 11 11 7 7 5 4 4 4 4 3 3 2 2 2 1 2 3 5 4
Wind_Direction
173 167 165 162 160 157 153 149 143 138 133 130 127 125 124 124 122 123 125 129 137 146 146 138 130 120 110 102 98 95 91 86 83 80 71 66 72 86 89 87 74 67 77
152 162 162 159 158 156 153 149 144 139 136 133 130 128 127 126 124 124 130 138 144 149 150 143 131 118 109 103 101 98 94 88 85 84 74 62 64 85 91 92 87 84 80
145 159 158 157 155 154 151 148 144 142 140 137 134 132 130 129 128 128 131 137 141 141 139 139 127 115 107 104 102 99 93 86 85 90 86 66 59 92 98 97 94 88 83
147 156 156 155 154 153 151 149 148 147 145 142 140 138 138 136 134 130 126 126 123 124 125 124 121 112 107 107 104 99 91 85 91 98 95 64 22 81 101 100 91 84 72
145 153 156 155 156 155 153 153 154 153 151 149 147 145 144 142 139 132 121 117 116 116 117 115 114 112 110 109 106 98 89 87 98 104 99 54 7 66 92 82 74 74 66
140 150 157 156 157 157 157 158 159 158 156 154 152 150 148 145 143 137 122 116 115 118 119 117 116 114 113 112 108 98 89 93 104 107 96 38 10 65 80 74 68 62 61
141 148 158 157 158 160 162 163 164 164 161 159 156 154 152 148 143 139 132 126 123 123 122 122 120 117 116 116 111 98 94 103 113 111 89 39 35 75 74 69 66 66 65
144 148 159 158 160 164 167 168 170 170 167 164 161 159 155 149 145 144 142 138 136 132 129 127 125 122 120 116 109 100 101 110 114 110 86 49 56 75 75 71 68 67 64
143 147 155 158 162 167 170 172 175 175 173 171 168 163 156 152 151 151 150 149 146 141 135 132 130 126 118 108 103 103 110 117 116 108 81 56 70 84 79 77 71 66 63
152 154 155 157 161 168 173 176 178 178 176 175 173 166 159 156 157 159 159 158 153 148 142 138 134 122 106 97 98 106 112 116 114 103 80 70 87 88 83 76 72 68 64
172 171 164 161 165 168 173 178 178 180 179 178 176 168 162 162 164 166 169 168 161 156 152 147 134 113 97 89 96 104 109 113 114 103 92 93 97 92 86 80 75 71 67
186 186 180 174 170 169 176 177 177 177 179 179 175 167 165 168 171 171 177 178 170 164 159 149 125 109 104 98 96 104 107 112 109 103 107 108 106 99 92 86 80 75 68
189 192 191 186 179 176 176 173 175 175 175 176 175 171 170 171 173 171 174 179 174 161 139 122 105 106 111 114 111 109 112 109 106 101 109 114 112 108 101 93 85 77 69
194 199 198 194 189 187 182 179 178 177 178 177 179 176 171 169 171 172 175 177 170 158 144 128 119 116 114 117 120 118 115 112 108 104 110 116 118 115 109 101 90 79 70
205 204 204 200 199 193 188 187 188 188 188 187 185 185 181 177 177 178 180 179 176 168 158 145 135 127 121 118 121 125 122 120 115 109 108 115 118 120 115 106 93 81 70
212 211 208 207 204 199 199 197 194 195 195 193 193 191 189 187 184 182 180 182 181 177 169 159 150 138 130 127 119 124 127 128 125 118 113 115 119 122 120 110 97 81 66
213 214 212 211 207 205 205 203 201 200 199 201 201 198 196 194 190 188 184 185 187 178 163 148 137 128 124 122 116 124 129 136 137 131 126 121 120 122 123 117 104 87 66
214 212 214 212 209 209 209 207 205 202 202 206 204 202 201 199 195 190 189 191 183 170 159 147 141 128 132 135 132 122 126 139 146 147 140 135 129 125 124 124 112 92 62
221 217 214 211 210 210 211 209 207 203 206 207 205 205 204 202 198 193 193 188 175 167 163 161 150 144 151 149 139 118 112 134 157 159 156 153 147 141 132 125 108 88 53
228 224 220 216 215 212 209 208 207 208 211 208 209 210 204 202 198 194 191 182 173 167 168 164 150 128 136 144 124 99 76 103 149 169 175 170 167 159 149 132 116 79 36
235 229 226 221 219 210 204 208 211 216 215 214 214 211 206 201 196 194 191 180 179 182 180 168 146 139 134 143 119 98 45 57 128 166 178 171 177 172 160 148 132 91 18
234 230 230 227 224 213 209 209 210 213 216 216 213 208 205 202 197 196 191 188 186 181 175 175 158 146 144 167 149 138 185 291 259 118 167 179 179 168 161 156 144 120 8
248 238 236 231 229 222 216 208 199 195 201 204 208 210 207 202 200 198 193 188 187 184 186 185 178 162 159 176 184 158 165 210 201 286 6 152 169 163 164 159 148 136 89
268 260 249 245 239 232 219 208 204 209 215 215 213 213 206 201 200 199 194 191 188 189 188 188 181 170 153 162 166 114 109 139 154 188 256 256 201 187 189 181 164 165 136
316 307 287 273 261 250 231 218 214 220 223 219 210 207 205 201 199 198 193 192 190 190 187 180 176 173 166 160 159 150 134 85 111 155 196 223 250 219 217 211 200 180 144
350 342 328 309 286 270 248 232 223 224 222 213 208 209 206 199 196 195 191 191 189 186 181 178 175 172 163 151 150 150 154 156 166 160 168 189 230 272 274 248 212 183 163
Height
1509 1511 1514 1517 1521 1524 1527 1529 1531 1533 1534 1536 1537 1538 1539 1540 1540 1541 1541 1541 1542 1543 1544 1545 1546 1547 1548 1549 1549 1549 1549 1550 1550 1550 1551 1551 1551 1551 1552 1552 1553 1553 1554
1508 1510 1514 1517 1521 1524 1527 1529 1531 1533 1535 1536 1537 1538 1539 1539 1539 1540 1540 1540 1541 1542 1544 1545 1547 1548 1549 1549 1549 1550 1550 1550 1551 1551 1551 1552 1552 1552 1553 1553 1554 1554 1554
1508 1511 1514 1518 1521 1524 1527 1529 1531 1533 1535 1536 1537 1537 1538 1538 1538 1539 1539 1540 1541 1543 1545 1546 1548 1549 1550 1550 1550 1551 1551 1551 1552 1552 1553 1553 1553 1554 1554 1555 1555 1555 1555
1509 1511 1514 1518 1521 1524 1527 1529 1531 1533 1534 1535 1536 1537 1537 1537 1538 1539 1540 1541 1542 1544 1545 1547 1549 1550 1551 1551 1552 1552 1552 1553 1554 1554 1554 1555 1555 1555 1556 1556 1556 1556 1556
1509 1512 1515 1518 1521 1524 1527 1529 1531 1533 1534 1535 1536 1536 1537 1538 1538 1539 1540 1541 1543 1544 1546 1548 1550 1551 1552 1552 1553 1553 1554 1554 1555 1556 1556 1556 1556 1557 1557 1557 1557 1557 1557
1510 1513 1516 1519 1521 1524 1527 1529 1531 1532 1533 1535 1536 1537 1537 1538 1539 1540 1541 1542 1544 1545 1547 1549 1551 1552 1553 1553 1553 1554 1555 1556 1556 1557 1557 1557 1557 1558 1558 1558 1558 1558 1558
1510 1513 1516 1519 1522 1524 1526 1529 1531 1532 1533 1535 1536 1537 1538 1539 1540 1541 1542 1543 1545 1547 1548 1550 1552 1552 1553 1554 1554 1555 1556 1557 1558 1558 1558 1558 1558 1559 1559 1559 1558 1558 1558
1511 1514 1517 1520 1522 1524 1526 1528 1530 1532 1533 1535 1536 1538 1539 1540 1541 1542 1543 1544 1546 1547 1549 1551 1552 1553 1553 1554 1555 1556 1557 1558 1558 1559 1559 1559 1559 1559 1559 1558 1558 1558 1558
1512 1514 1517 1519 1522 1524 1526 1528 1530 1532 1533 1535 1536 1538 1539 1540 1542 1543 1544 1545 1547 1548 1550 1551 1552 1553 1554 1554 1555 1556 1557 1558 1559 1559 1559 1559 1559 1559 1559 1558 1558 1558 1557
1512 1514 1517 1519 1521 1523 1526 1528 1530 1531 1533 1534 1536 1538 1539 1541 1542 1543 1544 1546 1547 1548 1550 1551 1552 1553 1554 1555 1556 1557 1557 1558 1559 1559 1559 1559 1559 1558 1558 1557 1557 1556 1556
1511 1513 1516 1518 1520 1523 1525 1527 1529 1531 1532 1534 1535 1537 1539 1540 1542 1543 1545 1546 1547 1549 1550 1551 1552 1553 1554 1555 1556 1556 1557 1558 1558 1559 1559 1558 1558 1557 1557 1556 1555 1555 1554
1508 1511 1514 1517 1519 1522 1524 1526 1527 1529 1531 1532 1534 1536 1538 1540 1541 1543 1544 1546 1547 1548 1550 1551 1552 1553 1554 1555 1556 1556 1557 1557 1557 1558 1558 1557 1557 1556 1555 1554 1554 1553 1553
1507 1510 1512 1515 1518 1520 1522 1524 1526 1528 1529 1531 1533 1535 1536 1538 1540 1542 1543 1545 1546 1547 1549 1550 1551 1552 1553 1554 1555 1556 1556 1556 1556 1556 1556 1556 1555 1554 1554 1553 1552 1552 1551
1506 1509 1511 1514 1516 1518 1520 1522 1524 1526 1527 1529 1531 1533 1535 1536 1538 1540 1542 1544 1545 1547 1548 1549 1551 1552 1553 1553 1554 1555 1555 1555 1555 1555 1555 1554 1554 1553 1552 1552 1551 1551 1550
1505 1507 1509 1512 1514 1516 1518 1519 1521 1523 1525 1527 1529 1530 1532 1534 1536 1538 1540 1542 1544 1545 1547 1548 1549 1551 1552 1552 1553 1553 1553 1553 1553 1553 1553 1553 1552 1552 1551 1550 1550 1549 1549
1503 1505 1507 1509 1511 1513 1515 1517 1518 1521 1523 1525 1526 1528 1530 1532 1534 1536 1538 1540 1541 1543 1545 1546 1548 1549 1550 1551 1552 1552 1552 1552 1552 1552 1551 1551 1551 1550 1550 1549 1548 1548 1548
1501 1502 1504 1506 1508 1510 1512 1514 1515 1517 1519 1521 1523 1525 1526 1528 1530 1533 1535 1537 1539 1541 1542 1544 1545 1547 1548 1549 1550 1550 1550 1550 1550 1550 1549 1549 1549 1548 1548 1547 1547 1546 1546
1497 1499 1501 1502 1504 1506 1508 1510 1511 1513 1515 1517 1519 1521 1523 1525 1527 1529 1531 1533 1536 1538 1539 1541 1543 1544 1545 1546 1547 1548 1548 1548 1548 1547 1547 1547 1547 1546 1546 1546 1545 1544 1544
1492 1494 1496 1497 1499 1501 1503 1505 1507 1509 1511 1513 1515 1517 1519 1520 1522 1525 1527 1530 1532 1534 1536 1538 1540 1541 1542 1544 1544 1545 1545 1545 1545 1545 1545 1544 1544 1544 1544 1543 1543 1542 1541
1486 1488 1490 1492 1493 1496 1497 1499 1501 1503 1505 1508 1510 1512 1514 1516 1518 1520 1522 1525 1528 1530 1532 1534 1536 1538 1539 1540 1541 1542 1542 1542 1542 1542 1542 1542 1541 1541 1541 1540 1540 1539 1539
1479 1481 1483 1485 1487 1489 1491 1492 1494 1496 1498 1501 1503 1506 1508 1510 1513 1515 1517 1520 1522 1524 1527 1529 1532 1533 1535 1536 1538 1538 1539 1539 1538 1538 1538 1538 1538 1538 1538 1537 1537 1536 1535
1473 1474 1476 1478 1480 1482 1484 1486 1487 1489 1491 1494 1497 1499 1502 1505 1507 1509 1511 1513 1516 1519 1521 1524 1526 1528 1530 1532 1533 1534 1535 1535 1534 1534 1534 1534 1535 1534 1534 1533 1533 1532 1532
1466 1468 1470 1472 1474 1476 1477 1479 1480 1482 1484 1486 1489 1491 1494 1498 1500 1503 1505 1507 1510 1512 1514 1517 1520 1522 1524 1526 1528 1530 1530 1529 1529 1529 1529 1530 1530 1530 1530 1529 1529 1528 1527
1461 1462 1464 1466 1467 1469 1471 1472 1473 1474 1475 1477 1481 1484 1487 1490 1492 1496 1498 1500 1503 1505 1507 1510 1513 1515 1518 1520 1522 1523 1524 1524 1525 1524 1525 1525 1525 1525 1526 1525 1524 1523 1523
1457 1458 1459 1460 1462 1463 1464 1465 1466 1467 1468 1471 1473 1476 1479 1481 1484 1487 1490 1493 1495 1498 1500 1503 1506 1508 1511 1513 1515 1517 1518 1519 1519 1520 1520 1521 1521 1521 1521 1521 1520 1519 1518
1455 1455 1455 1456 1457 1457 1458 1458 1459 1460 1461 1463 1464 1467 1470 1472 1475 1478 1482 1485 1488 1490 1493 1496 1498 1501 1504 1506 1509 1510 1512 1512 1513 1514 1515 1515 1516 1516 1516 1516 1515 1514 1513